Location: Sumpter
(44.7457°N, 118.2022°W)
Time: 03:45:34
(UTC-07:00)

ISS - Pass Details

Date: 24 February 2019
Orbit: 406 x 411 km, 51.6° (Epoch: 22 March)

Event Time Altitude Azimuth Distance (km) Brightness Sun altitude
Exits shadow 05:53:49 - 225° (SW) 2,037 -0.7 -8.8°
Reaches altitude 10° 05:55:14 10° 222° (SW) 1,456 -1.4 -8.5°
Maximum altitude 05:58:26 53° 145° (SE) 504 -3.1 -8.0°
Drops below altitude 10° 06:01:38 10° 67° (ENE) 1,466 0.1 -7.4°
Sets 06:03:45 0° 62° (ENE) 2,330 1.1 -7.0°
